Location: Wells
(51.2093°N, 2.6446°W)
Time: 09:06:46
(UTC+01:00)

SO-50 - Pass Details

Date: 18 March 2026
Orbit: 567 x 673 km, 64.6° (Epoch: 17 April)

Event Time Altitude Azimuth Distance (km) Brightness Sun altitude
Rises 22:32:43 0° 311° (NW) 3,020 ? -34.7°
Reaches altitude 10° 22:35:40 10° 329° (NNW) 2,112 ? -35.0°
Enters shadow 22:38:33 19° 6° (N) 1,604 ? -35.2°
